RH
64 49 41 33 30 27 26 26 31 37 62 100 96 76 60 61 71 64 57 45 36 32 45 37 38 42 28 22 22 23 23 18 18 19 34 38 36 38 48 49 48 43 38 35 30 22 17
88 62 47 38 34 29 29 27 29 38 51 80 79 66 72 78 85 85 62 55 45 39 33 30 31 52 46 25 22 21 22 24 23 21 17 19 30 42 42 42 40 41 42 42 43 39 33
100 74 63 51 37 30 31 29 30 32 40 51 52 67 64 87 88 91 88 73 54 36 38 34 28 45 62 48 28 23 22 21 20 21 22 19 17 18 22 34 39 41 44 39 34 34 33
100 88 71 68 51 33 31 33 33 34 41 47 59 64 62 81 100 99 92 75 67 54 42 37 34 37 55 72 46 30 27 26 26 24 26 25 21 23 21 18 20 26 34 35 34 33 33
87 83 72 76 66 47 32 32 34 35 37 44 60 60 53 51 55 100 100 90 80 66 55 43 37 29 36 45 66 51 42 40 29 30 30 27 30 24 21 21 22 26 23 22 24 27 32
42 74 75 72 69 66 60 39 34 37 38 40 40 42 43 43 44 49 98 100 75 63 46 46 43 37 30 33 34 53 60 47 41 39 36 37 32 34 34 26 28 32 37 31 29 28 28
55 58 55 54 61 68 82 70 56 44 44 43 48 46 42 42 47 45 71 100 82 61 46 38 32 43 35 31 35 39 57 65 50 48 48 51 50 44 37 44 41 44 52 50 43 36 34
100 98 83 68 50 59 61 58 65 70 69 64 60 56 55 52 54 53 79 100 89 66 58 37 32 40 42 41 33 31 44 53 76 63 62 64 63 59 62 62 50 60 78 74 71 53 42
100 100 100 98 70 57 62 62 62 58 60 58 58 60 66 80 76 82 99 99 78 71 59 55 46 38 46 46 52 43 34 38 40 40 55 53 58 71 80 87 94 87 89 92 90 80 60
100 100 100 100 100 95 79 66 67 73 73 72 85 98 100 99 97 96 91 69 62 57 58 58 64 52 52 52 48 46 44 36 41 48 56 56 68 74 70 69 64 70 69 74 87 78 69
100 93 87 98 100 100 92 99 100 100 100 100 96 85 85 73 61 59 54 54 58 63 61 63 79 73 58 60 60 56 50 48 52 52 53 64 60 52 58 65 69 75 74 70 58 64 68
100 100 82 82 82 86 100 100 100 100 100 100 95 90 84 81 73 70 81 72 66 68 68 72 79 76 62 57 54 65 67 60 57 47 43 41 43 42 40 47 58 71 77 75 67 69 54
100 100 81 88 70 70 93 100 100 100 100 100 100 100 100 98 94 95 91 85 78 77 82 92 99 97 91 79 69 70 73 72 76 54 42 37 38 39 40 37 46 50 43 46 39 50 48
100 100 100 70 60 54 63 93 100 100 100 100 100 100 100 100 100 100 100 100 99 92 84 93 100 100 100 100 94 85 78 81 80 69 56 50 52 52 51 54 54 48 47 54 42 43 43
100 99 83 83 67 60 55 66 80 97 100 100 99 95 85 86 99 100 100 100 100 99 92 92 100 100 100 100 99 98 92 98 81 66 61 60 58 53 57 56 55 57 55 52 51 48 38
100 95 100 98 100 97 93 76 67 63 86 95 95 85 87 88 81 86 100 100 100 99 96 98 98 100 100 100 99 94 90 94 92 83 75 68 61 71 74 71 68 65 66 68 70 57 49
100 95 99 100 100 91 74 73 57 56 70 64 71 68 65 83 88 87 89 74 77 77 79 84 88 91 90 75 75 80 96 88 85 77 73 75 72 74 73 74 79 77 79 80 77 76 69
100 91 100 100 100 100 99 85 74 64 71 60 52 45 47 60 61 81 73 69 59 56 61 69 64 67 69 79 69 73 88 89 94 94 96 84 69 67 71 82 88 95 97 100 99 96 90
100 82 95 100 100 100 100 100 89 74 64 58 65 59 73 72 80 80 64 44 55 82 78 81 78 80 83 88 83 88 100 92 84 87 88 98 83 74 66 91 100 100 100 100 100 100 100
100 95 100 100 100 100 100 100 100 100 100 100 100 100 93 58 56 62 62 69 84 100 99 97 96 95 89 100 98 91 93 97 90 84 81 69 72 72 80 92 99 100 98 100 100 100 100
100 100 99 84 86 100 100 98 100 100 100 99 100 97 99 100 100 100 98 97 94 95 99 100 97 94 88 81 76 78 82 81 77 70 70 61 62 88 96 96 98 95 88 97 99 100 90
98 100 100 100 100 100 100 100 86 100 100 100 100 100 100 100 100 100 100 100 100 100 100 100 98 93 85 89 90 90 92 85 83 78 74 74 79 80 78 98 93 76 91 91 89 98 87
100 100 100 100 100 100 100 100 100 100 100 100 100 100 100 100 100 100 100 100 100 100 90 86 86 92 94 100 100 100 100 96 94 93 78 67 68 71 65 74 81 79 73 77 80 96 86
100 100 100 100 100 100 100 100 100 100 100 100 100 100 100 100 100 100 100 100 99 100 100 100 95 93 93 87 86 72 59 62 61 59 55 48 44 45 44 47 48 52 60 78 99 100 92
100 100 100 100 100 100 100 100 100 100 100 100 100 100 100 100 100 98 93 93 84 79 76 75 59 51 50 49 45 44 51 47 43 46 50 42 36 34 33 33 36 41 58 76 78 68 47
100 100 89 100 100 100 100 100 100 100 100 100 100 98 83 86 86 79 74 68 65 60 58 57 52 56 67 60 50 48 48 42 40 36 31 31 35 35 36 36 36 50 58 51 39 33 30
100 100 100 100 100 100 100 100 100 100 100 92 78 74 72 72 77 76 67 69 73 77 76 71 61 60 59 55 54 47 44 42 33 30 30 39 39 39 38 34 33 35 35 34 30 28 42
100 100 100 100 100 100 100 100 100 100 100 92 85 82 88 85 79 78 74 77 78 71 72 69 65 61 54 47 42 39 35 29 38 40 40 38 37 36 36 33 29 30 30 35 45 56 71
100 100 100 100 100 100 100 100 100 100 100 100 100 93 94 85 70 62 65 63 68 71 65 62 55 48 41 38 35 30 32 35 35 33 34 36 39 36 33 30 33 38 49 66 82 89 92
Wind_Speed
30 28 26 26 22 22 20 17 14 14 14 12 13 16 18 20 22 25 27 26 24 23 22 26 21 24 26 27 25 26 27 25 28 20 12 12 12 15 16 16 19 19 19 20 22 24 25
33 31 31 29 26 26 24 21 19 19 17 19 18 21 21 24 25 25 27 26 27 25 24 24 20 20 24 24 25 23 22 20 22 23 24 17 16 16 15 17 18 22 24 23 23 24 26
38 34 33 30 31 31 28 25 25 23 23 24 26 26 26 28 29 27 28 28 27 30 28 26 21 19 20 25 21 22 20 18 18 20 20 20 19 16 15 20 22 23 24 25 27 28 30
36 35 35 35 33 33 33 31 28 28 27 27 28 28 29 31 33 31 27 27 28 30 33 29 24 20 19 23 26 24 22 19 18 18 17 17 15 19 16 14 15 20 28 31 33 34 36
34 36 36 34 33 34 36 35 35 33 33 33 31 31 33 36 36 37 32 28 29 31 33 33 30 24 21 24 25 26 26 23 20 21 20 18 17 16 14 14 17 18 17 14 19 26 35
42 38 38 38 37 36 36 38 38 38 38 39 39 39 39 40 40 40 37 32 30 31 35 35 32 31 28 24 24 26 29 28 26 25 24 23 21 19 19 19 20 22 25 26 24 24 25
49 46 44 43 42 40 40 40 40 41 41 41 41 42 43 45 46 41 40 35 35 34 36 36 35 33 32 30 29 27 28 31 29 29 29 29 28 26 25 24 25 26 30 34 33 34 33
45 48 51 49 47 46 44 43 44 43 43 44 45 47 48 48 47 43 41 38 37 39 41 39 37 35 36 34 33 33 32 31 32 32 33 32 33 33 32 33 31 32 33 37 37 39 39
44 45 48 51 51 49 48 47 45 46 47 47 49 49 49 50 49 47 43 37 40 42 41 42 42 41 38 38 37 37 36 37 38 39 38 39 38 38 38 41 41 43 43 43 42 43 42
49 48 48 48 49 52 51 50 49 49 49 50 50 49 47 45 42 40 41 44 46 45 44 46 45 44 42 41 41 42 41 40 40 43 44 44 46 47 47 48 48 48 48 50 50 49 45
56 55 52 49 51 52 52 50 50 51 51 51 50 49 48 49 49 49 50 49 50 47 47 49 48 47 46 44 44 43 45 45 46 47 49 49 49 49 50 51 53 54 54 54 53 53 50
61 63 59 56 54 51 48 50 49 50 51 52 52 54 55 55 54 53 53 53 51 50 50 52 52 51 50 47 46 49 49 50 50 53 53 52 54 53 55 57 57 58 60 61 57 58 53
67 66 67 63 61 57 54 52 52 51 54 54 54 54 54 56 56 56 55 56 57 57 56 55 55 54 55 55 54 52 52 56 59 59 58 57 56 58 61 62 64 64 66 67 65 67 64
73 70 70 70 67 63 60 58 56 57 59 59 59 58 58 58 59 60 61 61 62 60 57 56 56 58 60 60 59 59 59 62 66 66 63 64 63 65 66 67 67 67 70 73 71 70 70
72 73 73 71 71 70 68 64 63 63 64 64 64 65 63 63 62 60 61 62 61 61 61 58 59 62 65 65 64 65 67 69 71 72 71 71 71 70 71 74 75 74 76 78 80 77 71
71 69 74 76 75 74 74 73 70 68 67 68 66 65 66 64 63 62 62 63 64 63 63 64 66 67 68 72 73 74 74 76 77 79 81 80 77 77 78 80 83 82 80 82 85 83 79
77 76 76 77 81 80 79 78 76 73 72 70 69 70 69 67 68 69 69 69 69 68 69 72 75 77 79 83 84 83 84 85 87 87 87 87 84 82 85 87 87 87 86 87 87 86 86
86 84 80 80 80 81 81 79 78 77 76 74 75 76 76 76 77 78 78 78 80 80 80 81 86 86 86 89 91 92 93 94 94 97 97 96 92 91 92 94 93 91 89 91 94 92 91
87 87 84 85 80 78 78 77 80 80 79 79 79 78 82 84 86 87 87 87 85 88 89 91 93 94 96 96 96 96 100 101 103 103 102 101 101 102 100 98 96 92 92 95 97 96 92
83 83 85 85 86 84 84 85 84 84 85 84 84 85 86 86 89 88 89 90 91 93 96 100 100 101 101 103 105 104 108 109 111 110 108 108 105 106 102 100 97 95 96 98 98 96 95
85 82 87 89 89 88 88 88 90 89 89 88 81 80 85 87 88 90 92 94 97 100 102 105 106 109 109 111 114 114 111 114 113 107 107 108 105 102 100 102 99 98 99 103 101 100 102
87 86 87 87 88 89 90 92 93 88 88 90 88 89 91 89 92 96 99 101 103 105 107 110 112 113 112 110 111 109 105 104 100 101 101 99 96 98 95 101 101 96 95 99 100 102 103
91 91 91 93 91 90 93 92 93 94 93 96 98 97 98 101 102 102 104 103 104 104 106 109 108 98 100 97 97 96 91 93 91 89 94 97 96 98 95 99 99 92 95 97 101 102 102
100 96 97 100 101 99 96 97 97 98 100 103 102 100 101 103 103 100 95 95 94 91 89 88 89 90 91 94 92 92 92 93 96 98 96 97 101 103 102 101 97 98 97 97 99 101 104
98 99 100 101 97 102 102 104 106 107 106 104 103 98 97 97 95 96 95 93 92 93 95 94 94 93 96 98 101 100 100 103 105 103 103 104 107 107 105 103 98 96 95 97 98 99 99
90 93 97 90 93 98 101 103 104 103 105 108 106 105 91 90 94 93 93 92 94 96 96 97 98 100 104 104 106 107 113 111 105 104 104 104 104 102 101 102 94 91 94 93 91 88 90
89 92 87 87 89 88 88 90 91 91 91 92 94 96 95 92 92 92 92 92 94 96 99 101 105 107 110 111 113 116 111 109 109 99 94 95 96 95 96 93 84 84 85 85 83 83 82
85 85 87 87 85 85 84 86 88 88 88 92 91 92 92 90 92 96 95 98 99 100 102 103 105 105 105 108 108 109 102 93 90 90 92 91 90 86 85 85 80 79 78 78 78 78 77
88 82 83 83 89 89 88 87 87 88 89 89 93 92 90 94 98 99 99 100 99 97 100 102 103 101 105 106 102 95 85 83 84 84 83 81 79 81 81 79 80 76 73 72 72 72 73
Wind_Direction
250 252 251 255 259 265 271 258 263 279 295 313 329 332 326 331 338 346 349 355 358 359 356 355 1 6 9 10 9 16 18 25 25 13 320 303 298 287 275 271 266 266 262 261 267 269 260
256 252 251 247 253 256 263 262 261 271 281 290 312 317 322 324 326 329 336 343 348 349 352 348 348 353 357 5 7 5 9 13 13 18 14 353 301 287 283 280 273 263 262 264 263 263 266
252 250 250 252 252 253 257 261 266 268 274 280 291 301 310 315 318 319 323 329 335 343 342 346 341 338 346 350 353 1 357 359 3 4 7 9 5 1 316 280 274 272 270 266 258 258 259
256 251 248 252 254 251 258 259 265 268 275 279 288 291 300 307 311 313 317 321 325 329 337 334 337 331 327 335 337 339 349 344 344 343 346 348 346 340 355 1 334 294 278 272 270 267 264
258 251 250 251 256 256 257 260 262 269 273 277 281 286 292 298 305 308 312 313 315 321 326 328 327 327 327 324 326 326 329 332 338 335 326 325 329 323 327 324 330 332 319 310 298 285 274
256 254 252 252 252 258 260 261 263 267 272 276 281 285 289 293 298 300 306 304 306 311 317 319 319 320 321 321 316 317 319 322 323 323 327 320 309 311 307 306 307 309 325 322 310 311 313
255 256 255 255 254 254 260 264 265 266 271 276 280 285 287 289 292 293 296 297 300 305 309 309 311 312 314 317 312 308 308 311 314 313 313 317 312 300 298 294 290 292 298 312 316 316 315
257 257 258 257 255 256 259 261 263 267 270 275 277 281 284 289 290 292 292 293 294 303 301 302 306 303 306 306 307 308 303 302 303 304 305 305 306 304 307 304 289 290 290 297 301 310 311
258 258 258 257 258 258 261 264 265 267 270 273 275 279 282 284 285 290 290 288 294 295 297 300 299 298 298 298 299 301 302 301 302 305 301 299 299 301 300 299 301 299 295 295 292 295 301
254 258 259 259 260 262 264 268 270 273 275 277 280 282 283 285 285 286 286 288 292 295 294 298 297 296 297 295 297 296 296 297 298 298 299 299 299 298 296 294 293 295 295 294 291 292 294
253 255 257 257 259 261 262 264 268 272 275 276 276 277 278 279 283 285 286 287 290 292 292 296 297 293 293 294 293 294 293 295 295 296 297 294 294 294 295 294 292 292 294 297 295 292 291
254 257 257 260 261 261 264 267 268 272 274 274 277 279 281 284 286 287 289 290 290 291 293 295 296 291 290 291 292 292 288 290 290 294 291 290 290 291 291 292 291 291 293 293 293 295 290
252 254 258 259 259 259 261 264 267 269 270 273 273 274 277 280 282 284 286 287 287 288 290 293 294 290 291 294 293 294 289 292 291 295 291 291 289 289 289 290 290 289 290 290 290 290 290
254 255 259 261 262 261 261 264 266 267 268 268 269 272 274 277 278 280 281 282 283 285 287 289 289 289 291 293 293 293 294 291 292 293 291 291 291 291 289 290 290 290 290 290 292 291 289
252 257 261 263 264 266 265 264 264 266 267 268 269 272 275 276 277 280 282 282 283 285 286 287 287 288 289 291 291 289 291 290 290 291 291 291 292 292 292 291 291 289 289 290 290 291 293
253 258 261 264 265 266 266 265 264 265 269 270 272 276 278 277 277 281 282 282 283 285 288 288 290 290 291 292 291 291 292 291 291 291 292 292 294 292 290 290 290 289 288 287 287 288 290
253 260 257 259 262 265 266 266 267 268 269 271 273 276 275 276 279 280 279 280 282 285 286 287 287 287 288 290 291 291 291 292 291 291 292 293 294 292 294 293 290 288 287 285 285 286 287
253 258 257 257 259 264 267 268 269 268 270 272 275 278 281 283 283 283 284 285 286 286 285 286 287 287 287 289 289 291 291 292 291 293 294 293 295 295 294 292 290 287 284 284 284 283 285
256 256 257 256 254 257 263 266 269 270 270 272 277 279 280 282 282 282 282 283 284 285 286 287 287 286 288 287 288 288 289 291 291 291 292 292 293 293 293 289 285 282 281 282 282 283 285
257 260 255 254 256 257 261 265 268 271 272 275 276 275 274 279 281 280 281 282 283 283 284 285 286 285 286 287 288 288 289 290 292 292 293 293 292 291 289 286 282 281 279 279 280 281 279
254 255 256 257 261 260 261 265 267 269 273 275 277 276 276 277 279 278 279 280 281 281 283 284 286 288 289 289 290 290 290 290 290 291 291 291 290 286 284 283 281 281 282 280 280 278 278
252 253 253 255 258 259 260 260 264 267 272 273 274 274 274 276 277 276 277 278 280 282 285 287 287 289 290 290 289 289 289 289 289 289 288 288 286 285 284 282 282 284 283 282 282 280 281
252 252 255 256 257 259 262 263 264 267 268 268 268 272 274 275 276 277 280 283 283 284 285 286 287 287 287 286 287 288 288 288 288 286 287 288 287 285 286 283 283 285 282 282 282 281 281
255 255 258 258 258 260 261 262 264 266 266 268 270 273 274 276 278 278 281 283 284 284 286 286 285 285 285 287 287 288 290 290 290 289 290 290 287 285 286 285 284 283 283 281 281 281 284
255 258 261 263 259 259 260 261 263 264 266 268 271 274 274 278 279 280 280 282 282 283 285 287 287 289 290 291 290 290 291 294 293 292 290 290 289 286 287 285 285 286 284 280 280 282 284
256 257 260 260 259 259 260 260 263 266 269 270 272 273 279 282 283 282 284 285 287 288 290 291 291 291 290 291 292 293 295 296 294 292 290 288 284 284 284 284 286 284 282 284 285 285 284
254 259 259 261 261 263 262 264 267 270 273 274 276 278 280 283 284 285 287 288 288 289 290 289 289 291 291 292 292 294 294 295 295 291 288 284 284 285 285 286 288 285 283 283 284 284 283
251 253 257 259 260 263 266 267 270 273 275 275 277 278 280 282 283 286 287 287 288 290 291 291 291 292 294 294 294 295 297 295 289 288 287 288 288 288 287 288 287 285 285 285 285 285 284
251 251 252 255 259 262 263 266 269 270 273 276 277 279 280 283 284 285 287 288 290 291 291 291 293 295 297 296 296 296 292 289 287 287 287 288 287 287 286 287 287 286 285 285 284 284 284